Weather Service Report


024 
ASUS41 KALY 291810
RWRALY

NEW YORK STATE HOURLY WEATHER ROUNDUP
NATIONAL WEATHER SERVICE ALBANY NY
200 PM EDT MON AUG 29 2016

NOTE: "FAIR" INDICATES FEW OR NO CLOUDS BELOW 12,000 FEET WITH NO
SIGNIFICANT WEATHER AND/OR NO OBSTRUCTIONS TO VISIBILITY.

NYZ032-033-038>043-046>054-057>066-NYZ062>081-082-084-291900-
EAST

  
CITY           SKY/WX    TMP DP  RH WIND       PRES   REMARKS
ALBANY         MOSUNNY   83  59  44 NW17      30.12S                  
GLENS FALLS    MOSUNNY   81  55  40 NW8       30.13S                  
POUGHKEEPSIE   MOSUNNY   85  58  39 W8G18     30.09F                  
NEWBURGH       MOSUNNY   86  63  45 N7        30.13F                  
MONTGOMERY     SUNNY     87  61  41 N9G16     30.11F                  
WHITE PLAINS   MOSUNNY   88  59  37 NW13      30.09F                  
ISLIP          MOSUNNY   89  66  46 NW10G22   30.06F HX  91           
NEW YORK CITY  MOSUNNY   91  59  33 NW9       30.07F HX  90           
CENTRAL PARK   SUNNY     90  58  33 NW7       30.11F                  
$$

NYZ005>009-017-018-044>046-055-056-291900-
CENTRAL

  
CITY           SKY/WX    TMP DP  RH WIND       PRES   REMARKS
FULTON         SUNNY     76  59  55 W6        30.23S                  
SYRACUSE       MOSUNNY   78  59  51 NW9       30.21S                  
ROME           PTSUNNY   77  59  53 NW15      30.20S                  
ELMIRA         MOSUNNY   80  60  50 N6        30.22S                  
BINGHAMTON     MOSUNNY   75  59  57 N10       30.24S                  
MONTICELLO     MOSUNNY   79  59  50 NW14G20   30.20S                  
$$

NYZ026>034-041>043-087-291900-
NORTH

  
CITY           SKY/WX    TMP DP  RH WIND       PRES   REMARKS
WATERTOWN      SUNNY     78  52  40 VRB7      30.21F                  
FORT DRUM      NOT AVBL                                               
MASSENA        MOSUNNY   72  55  55 NW7       30.22S                  
SARANAC LAKE   PTSUNNY   69  51  52 W8        30.22R                  
PLATTSBURGH    MOSUNNY   76  55  48 N15G24    30.16S                  
$$

NYZ001>004-010>016-019>021-085-291900-
WEST

  
CITY           SKY/WX    TMP DP  RH WIND       PRES   REMARKS
NIAGARA FALLS  MOSUNNY   79  61  53 VRB5      30.24F                  
BUFFALO        MOSUNNY   79  59  50 NW7       30.24F                  
DUNKIRK        SUNNY     75  63  66 VRB7      30.26F                  
JAMESTOWN      SUNNY     75  57  53 N5        30.28S                  
WELLSVILLE     MOSUNNY   76  57  51 N9        30.30F                  
ROCHESTER      MOSUNNY   79  64  60 N10G18    30.24S                  
PENN YAN       MOSUNNY   78  60  53 VRB3      30.24F                  
$$

             KEY
       WCI = WIND CHILL INDEX
       VSB = VISIBILITY
       HX  = HEAT INDEX
$$
  

Return to Home page


Western Regional Climate Center, wrcc@dri.edu